[[{"header":{"parameterUnit":"m.s-1","parameterCategory":1,"la1":30.2991,"la2":30.254,"lo1":-89.0895,"lo2":-89.0444,"dy":0.0017,"dx":0.0017,"nx":28,"ny":28,"refTime":"2024-03-09T09:00:00:Z","depth":0,"parameterNumber":2,"parameterNumberName":"U-component_of_WINDS"},"data":[0,0,0,0,0,0,0,0,0,0,0,0,0,0,0,0,0,0,0,0,0,0,0,0,0,0,0,0,0,0,0,0,0,0,0,0,0,0,0,0,0,0,0,0,0,0,0,0,0,0,0,0,0,0,0,0,0,0,-0.0626,-0.0626,0,-0.0637,-0.0638,-0.0638,-0.0622,-0.0622,-0.0621,-0.0621,-0.0635,-0.0636,-0.0637,0,0,0,0,0,0,0,0,0,0,0,0,0,-0.0591,-0.0592,-0.0626,-0.0626,-0.0626,-0.0637,-0.0638,-0.0638,-0.0622,-0.0622,-0.0621,-0.062,-0.0635,-0.0636,-0.0637,0,0,0,0,0,0,0,0,0,0,0,0,0,-0.0605,-0.0592,-0.0626,-0.062,-0.0619,-0.0637,-0.0638,-0.0638,-0.0623,-0.0622,-0.0621,-0.062,-0.0634,-0.0636,-0.0637,-0.0662,0,0,-0.0641,-0.0642,0,0,0,0,0,0,0,0,-0.0604,-0.0606,-0.062,-0.062,-0.062,-0.0627,-0.0631,-0.0646,-0.0623,-0.0621,-0.0621,-0.062,-0.0633,-0.0635,-0.0639,-0.0663,-0.0664,-0.0641,-0.0642,-0.0643,-0.0643,0,0,0,0,0,0,0,-0.0603,-0.0606,-0.063,-0.0621,-0.062,-0.0617,-0.0618,-0.0634,-0.0632,-0.0621,-0.062,-0.0622,-0.0633,-0.0638,-0.0639,-0.0664,-0.0641,-0.0643,-0.0643,-0.0644,-0.0709,-0.071,0,0,0,0,0,0,-0.0603,-0.0605,-0.063,-0.0631,-0.061,-0.0618,-0.0619,-0.0626,-0.0632,-0.0632,-0.0622,-0.0621,-0.0636,-0.0638,-0.064,-0.067,-0.0643,-0.0644,-0.0645,-0.0709,-0.071,-0.0711,0,0,0,0,0,0,-0.0602,-0.0605,-0.063,-0.0618,-0.062,-0.062,-0.0627,-0.0627,-0.0631,-0.0633,-0.0632,-0.0627,-0.0635,-0.0638,-0.0657,-0.067,-0.0645,-0.0646,-0.0707,-0.0709,-0.071,-0.0731,0,0,0,0,0,0,-0.0601,-0.0605,-0.0615,-0.0618,-0.0621,-0.0646,-0.0628,-0.0627,-0.0633,-0.0631,-0.0637,-0.0637,-0.0635,-0.0655,-0.0658,-0.0672,-0.0647,-0.0706,-0.0708,-0.071,-0.0729,-0.0733,-0.0736,0,0,0,0,0,-0.06,-0.062,-0.0615,-0.0618,-0.0633,-0.0647,-0.0649,-0.0645,-0.0634,-0.0644,-0.0645,-0.0637,-0.0668,-0.0657,-0.066,-0.0675,-0.0705,-0.0708,-0.071,-0.0727,-0.0732,-0.0736,0,0,0,0,0,0,-0.062,-0.0621,-0.0615,-0.0637,-0.0642,-0.0644,-0.0657,-0.065,-0.0658,-0.0657,-0.0651,-0.0653,-0.0673,-0.0676,-0.0663,-0.0699,-0.0685,-0.0688,-0.0697,-0.0702,-0.0705,-0.0705,-0.0648,0,0,0,0,0,-0.0626,-0.0637,-0.0638,-0.0657,-0.066,-0.0658,-0.0664,-0.066,-0.0665,-0.0667,-0.067,-0.0676,-0.0687,-0.0694,-0.0704,-0.0729,-0.073,-0.074,-0.0744,-0.0746,-0.075,-0.0763,-0.0767,-0.0717,-0.0717,-0.0717,0,0,-0.0641,-0.0643,-0.065,-0.0661,-0.0664,-0.0676,-0.066,-0.0673,-0.0682,-0.067,-0.0688,-0.0689,-0.0696,-0.0718,-0.0727,-0.072,-0.0763,-0.0749,-0.0751,-0.0753,-0.0765,-0.077,-0.0774,-0.0719,-0.0719,-0.0718,0,0,-0.0673,-0.0675,-0.0692,-0.0695,-0.07,-0.0698,-0.0702,-0.0705,-0.0706,-0.0724,-0.0715,-0.0725,-0.0744,-0.0749,-0.0754,-0.0787,-0.078,-0.079,-0.0809,-0.0822,-0.0826,-0.0829,-0.0842,-0.0846,-0.0793,-0.0793,-0.0793,0,-0.0691,-0.0708,-0.0701,-0.0715,-0.072,-0.0708,-0.0725,-0.0729,-0.0737,-0.0741,-0.0733,-0.0756,-0.0759,-0.0782,-0.079,-0.0794,-0.0799,-0.079,-0.0826,-0.0829,-0.0832,-0.0844,-0.0849,-0.0794,-0.0794,-0.0794,-0.0794,0,-0.073,-0.0741,-0.0754,-0.0761,-0.0768,-0.0783,-0.0779,-0.0787,-0.0782,-0.0781,-0.0799,-0.0802,-0.0813,-0.0818,-0.0814,-0.084,-0.0835,-0.0826,-0.0812,-0.0839,-0.085,-0.0854,-0.0796,-0.0795,-0.0795,-0.0795,0,0,-0.0777,-0.0779,-0.0784,-0.0787,-0.0791,-0.08,-0.0815,-0.0824,-0.0831,-0.0836,-0.0849,-0.0864,-0.0856,-0.0861,-0.0857,-0.0869,-0.0895,-0.0858,-0.0858,-0.0866,-0.0925,-0.0933,-0.0938,-0.089,-0.0891,-0.0891,-0.0925,0,-0.081,-0.0834,-0.0828,-0.0853,-0.0864,-0.0852,-0.0865,-0.0869,-0.0868,-0.0877,-0.0877,-0.0888,-0.0876,-0.0879,-0.0889,-0.089,-0.0907,-0.0887,-0.0903,-0.0903,-0.0903,-0.0943,-0.0952,-0.0983,-0.0929,-0.093,-0.093,0,-0.0852,-0.0858,-0.0884,-0.0885,-0.089,-0.0901,-0.0909,-0.0918,-0.0922,-0.0921,-0.0927,-0.092,-0.0935,-0.0919,-0.094,-0.0926,-0.0932,-0.0933,-0.0934,-0.0936,-0.0919,-0.0948,-0.0993,-0.0998,-0.0937,-0.0936,-0.0936,0,-0.0885,-0.0899,-0.0917,-0.092,-0.0922,-0.093,-0.0931,-0.0935,-0.094,-0.0947,-0.0951,-0.096,-0.0965,-0.0972,-0.0968,-0.0957,-0.099,-0.0973,-0.099,-0.099,-0.0999,-0.0998,-0.1046,-0.1,-0.1,-0.1,-0.1,0,-0.0923,-0.0939,-0.0931,-0.0942,-0.096,-0.0953,-0.0971,-0.0971,-0.0973,-0.0984,-0.0974,-0.0985,-0.0978,-0.0988,-0.0985,-0.1003,-0.1005,-0.1005,-0.1005,-0.1007,-0.1007,-0.1012,-0.101,-0.1001,-0.1001,-0.1001,-0.1,0,-0.0963,-0.0959,-0.0977,-0.0976,-0.0977,-0.099,-0.099,-0.1,-0.0998,-0.1012,-0.1015,-0.1012,-0.1023,-0.1019,-0.1032,-0.103,-0.1052,-0.1048,-0.1051,-0.1051,-0.1067,-0.1066,-0.1121,-0.1128,-0.1076,-0.1077,-0.1077,0,-0.0989,-0.1001,-0.1002,-0.1008,-0.101,-0.102,-0.1025,-0.1018,-0.1024,-0.1029,-0.1039,-0.1049,-0.1057,-0.1075,-0.1075,-0.1084,-0.1081,-0.1099,-0.1082,-0.1084,-0.1082,-0.1082,-0.1084,-0.1103,-0.1104,-0.1104,-0.1105,0,-0.1035,-0.1031,-0.104,-0.1047,-0.1053,-0.1059,-0.1063,-0.1069,-0.1062,-0.107,-0.108,-0.1086,-0.1098,-0.1109,-0.1117,-0.1119,-0.1111,-0.111,-0.1114,-0.1118,-0.1119,-0.1119,-0.1062,-0.1109,-0.1109,-0.1108,-0.1108,-0.1108,-0.1069,-0.108,-0.1081,-0.1091,-0.1093,-0.1097,-0.1107,-0.1105,-0.1114,-0.1123,-0.1117,-0.113,-0.1134,-0.1144,-0.1146,-0.1157,-0.115,-0.1156,-0.1158,-0.116,-0.1162,-0.1116,-0.1158,-0.1158,-0.1158,-0.1158,-0.1157,0,-0.1116,-0.1116,-0.1124,-0.1131,-0.1138,-0.1128,-0.1132,-0.1139,-0.1151,-0.1154,-0.1161,-0.1174,-0.1183,-0.1183,-0.1192,-0.12,-0.1197,-0.1203,-0.1203,-0.1204,-0.1168,-0.1163,-0.1205,-0.1205,-0.1205,-0.1205,-0.1205,-0.1205,-0.1141,-0.1158,-0.1154,-0.1172,-0.1172,-0.1184,-0.1188,-0.1192,-0.1194,-0.1208,-0.1216,-0.1215,-0.1217,-0.1225,-0.1234,-0.1234,-0.1238,-0.1246,-0.1244,-0.1211,-0.1206,-0.1202,-0.1198,-0.1246,-0.1246,-0.1279,-0.128,-0.128]},{"header":{"parameterUnit":"m.s-1","parameterCategory":1,"la1":30.2991,"la2":30.254,"lo1":-89.0895,"lo2":-89.0444,"dy":0.0017,"dx":0.0017,"nx":28,"ny":28,"refTime":"2024-03-09T09:00:00:Z","depth":0,"parameterNumber":3,"parameterNumberName":"V-component_of_WINDS"},"data":[0,0,0,0,0,0,0,0,0,0,0,0,0,0,0,0,0,0,0,0,0,0,0,0,0,0,0,0,0,0,0,0,0,0,0,0,0,0,0,0,0,0,0,0,0,0,0,0,0,0,0,0,0,0,0,0,0,0,-5.867,-5.8671,0,-5.8755,-5.8756,-5.8757,-5.8717,-5.8715,-5.8713,-5.8711,-5.8795,-5.8799,-5.8803,0,0,0,0,0,0,0,0,0,0,0,0,0,-5.847,-5.8474,-5.867,-5.8671,-5.8672,-5.8755,-5.8756,-5.8757,-5.8718,-5.8715,-5.8712,-5.871,-5.8793,-5.8798,-5.8804,0,0,0,0,0,0,0,0,0,0,0,0,0,-5.8556,-5.8475,-5.867,-5.8662,-5.8662,-5.8755,-5.8756,-5.8758,-5.8718,-5.8715,-5.8712,-5.8709,-5.8792,-5.8798,-5.8804,-5.8908,0,0,-5.8824,-5.8826,0,0,0,0,0,0,0,0,-5.8551,-5.8563,-5.8662,-5.8663,-5.8663,-5.8722,-5.8716,-5.8808,-5.8719,-5.8697,-5.8711,-5.8707,-5.8773,-5.8781,-5.8804,-5.8912,-5.8915,-5.8824,-5.8828,-5.8831,-5.8833,0,0,0,0,0,0,0,-5.8545,-5.8559,-5.8703,-5.8664,-5.8664,-5.8654,-5.8662,-5.8734,-5.8752,-5.8699,-5.8696,-5.8707,-5.8773,-5.8798,-5.8805,-5.8917,-5.8824,-5.883,-5.8834,-5.8836,-5.9115,-5.9119,0,0,0,0,0,0,-5.854,-5.8555,-5.8701,-5.8706,-5.8598,-5.866,-5.867,-5.8707,-5.8751,-5.8755,-5.8709,-5.8705,-5.8788,-5.8798,-5.8808,-5.8934,-5.8831,-5.8837,-5.884,-5.9112,-5.9116,-5.912,0,0,0,0,0,0,-5.8536,-5.8553,-5.8697,-5.863,-5.8647,-5.8667,-5.8709,-5.871,-5.8735,-5.8759,-5.8762,-5.8732,-5.8786,-5.8799,-5.8884,-5.8936,-5.884,-5.8845,-5.9108,-5.9113,-5.9118,-5.9185,0,0,0,0,0,0,-5.853,-5.8552,-5.8592,-5.8631,-5.8651,-5.8773,-5.8712,-5.8714,-5.8746,-5.8741,-5.8781,-5.8785,-5.8785,-5.8875,-5.889,-5.8943,-5.885,-5.9103,-5.911,-5.9116,-5.9178,-5.9192,-5.9204,0,0,0,0,0,-5.8523,-5.8606,-5.8594,-5.8612,-5.8702,-5.8776,-5.8787,-5.8787,-5.8751,-5.8791,-5.8807,-5.8783,-5.8928,-5.8884,-5.8901,-5.8956,-5.91,-5.9108,-5.9116,-5.9172,-5.9189,-5.9203,0,0,0,0,0,0,-5.8571,-5.8611,-5.8598,-5.8697,-5.8734,-5.8769,-5.882,-5.8804,-5.8851,-5.8844,-5.884,-5.8849,-5.8938,-5.8955,-5.8905,-5.906,-5.9008,-5.902,-5.9045,-5.9061,-5.9074,-5.9068,-5.8856,0,0,0,0,0,-5.8594,-5.8652,-5.8683,-5.8767,-5.8786,-5.88,-5.8832,-5.8829,-5.8866,-5.8881,-5.8902,-5.8939,-5.8992,-5.9028,-5.9078,-5.918,-5.9189,-5.9227,-5.924,-5.925,-5.9261,-5.9317,-5.9335,-5.9147,-5.9147,-5.9147,0,0,-5.864,-5.8669,-5.8705,-5.8777,-5.8805,-5.8864,-5.8813,-5.8877,-5.8921,-5.889,-5.8972,-5.899,-5.9029,-5.9124,-5.9167,-5.9141,-5.9315,-5.926,-5.9269,-5.9274,-5.9327,-5.9345,-5.9361,-5.9152,-5.9151,-5.915,0,0,-5.8755,-5.8783,-5.8856,-5.8886,-5.893,-5.8939,-5.8956,-5.8995,-5.9006,-5.9088,-5.9066,-5.9118,-5.921,-5.924,-5.9267,-5.9396,-5.9376,-5.9412,-5.9479,-5.9534,-5.9549,-5.9562,-5.9609,-5.9626,-5.9422,-5.9422,-5.9422,0,-5.8807,-5.8896,-5.8896,-5.8963,-5.8995,-5.8971,-5.9046,-5.9074,-5.9132,-5.9154,-5.9125,-5.9242,-5.9267,-5.9369,-5.94,-5.9423,-5.9443,-5.9408,-5.9547,-5.956,-5.9572,-5.9617,-5.9635,-5.9427,-5.9426,-5.9426,-5.9425,0,-5.8958,-5.9021,-5.9075,-5.9133,-5.9172,-5.9242,-5.9252,-5.929,-5.9284,-5.9296,-5.9381,-5.941,-5.9467,-5.9491,-5.9484,-5.9592,-5.9576,-5.9547,-5.9495,-5.9595,-5.9637,-5.9654,-5.9433,-5.9431,-5.943,-5.9429,0,0,-5.9106,-5.9164,-5.9184,-5.9211,-5.9258,-5.9306,-5.9375,-5.9432,-5.9466,-5.9506,-5.9565,-5.9644,-5.9619,-5.965,-5.9647,-5.9695,-5.9796,-5.9661,-5.9662,-5.9686,-5.9918,-5.994,-5.996,-5.9783,-5.9787,-5.9789,-5.9915,0,-5.9225,-5.9348,-5.935,-5.9463,-5.9521,-5.95,-5.9561,-5.9596,-5.9609,-5.966,-5.9673,-5.9731,-5.9692,-5.9711,-5.9758,-5.9774,-5.9843,-5.9765,-5.9838,-5.984,-5.9829,-5.9982,-6.0005,-6.0122,-5.9931,-5.9934,-5.9936,0,-5.938,-5.9428,-5.9548,-5.9588,-5.9612,-5.9667,-5.972,-5.9769,-5.9809,-5.9815,-5.9851,-5.9841,-5.9911,-5.9857,-5.9954,-5.9901,-5.9931,-5.9943,-5.9948,-5.9955,-5.9895,-5.9994,-6.0159,-6.0178,-5.9962,-5.996,-5.9958,0,-5.9478,-5.9571,-5.9656,-5.9679,-5.9727,-5.9767,-5.9788,-5.9825,-5.986,-5.9906,-5.9928,-5.9982,-6.0011,-6.0052,-6.0057,-6.0017,-6.0155,-6.0101,-6.0162,-6.0162,-6.0193,-6.0191,-6.0366,-6.021,-6.021,-6.021,-6.0209,0,-5.9611,-5.9685,-5.97,-5.9752,-5.9834,-5.9836,-5.9917,-5.9935,-5.9968,-6.0023,-6.0007,-6.0058,-6.0061,-6.0113,-6.0117,-6.0198,-6.021,-6.0218,-6.0218,-6.022,-6.0219,-6.024,-6.0232,-6.0214,-6.0213,-6.0213,-6.0212,0,-5.9733,-5.9746,-5.9837,-5.9876,-5.9888,-5.9947,-5.998,-6.003,-6.0042,-6.0111,-6.0127,-6.0146,-6.0207,-6.0216,-6.0287,-6.029,-6.0387,-6.0378,-6.0374,-6.0373,-6.0435,-6.0429,-6.063,-6.0657,-6.0483,-6.0484,-6.0486,0,-5.9818,-5.9875,-5.9921,-5.9958,-5.9982,-6.0041,-6.0077,-6.008,-6.0118,-6.0168,-6.0212,-6.0272,-6.032,-6.0419,-6.0438,-6.0493,-6.0486,-6.0552,-6.0493,-6.0494,-6.0488,-6.0485,-6.0491,-6.0564,-6.0566,-6.0567,-6.0568,0,-5.9968,-5.9972,-6.0025,-6.0082,-6.0126,-6.017,-6.0211,-6.0241,-6.025,-6.0293,-6.0357,-6.0395,-6.0468,-6.0528,-6.0583,-6.0604,-6.0588,-6.0587,-6.0604,-6.0607,-6.0603,-6.0607,-6.0406,-6.0582,-6.0581,-6.058,-6.0579,-6.0579,-6.0075,-6.0125,-6.0166,-6.0226,-6.0258,-6.0298,-6.0347,-6.0366,-6.0419,-6.0481,-6.0479,-6.0549,-6.0588,-6.066,-6.0685,-6.0739,-6.0718,-6.0742,-6.0749,-6.0755,-6.0762,-6.0594,-6.0749,-6.0749,-6.0748,-6.0748,-6.0748,0,-6.0225,-6.025,-6.0306,-6.0366,-6.0413,-6.0396,-6.0441,-6.0482,-6.0544,-6.0582,-6.0631,-6.0704,-6.0762,-6.0787,-6.0844,-6.0883,-6.0877,-6.0898,-6.0896,-6.0901,-6.0777,-6.0757,-6.0902,-6.0902,-6.0902,-6.0902,-6.0902,-6.0902,-6.0308,-6.0393,-6.0402,-6.0503,-6.0527,-6.0597,-6.0625,-6.0661,-6.0692,-6.0776,-6.0825,-6.0841,-6.0874,-6.0934,-6.0986,-6.0992,-6.1014,-6.1039,-6.1041,-6.0925,-6.091,-6.0895,-6.0876,-6.1043,-6.1043,-6.116,-6.1161,-6.1162]}]]